TimeCEST,TemperatureF,Dew PointF,Humidity,Sea Level PressureIn,VisibilityMPH,Wind Direction,Wind SpeedMPH,Gust SpeedMPH,PrecipitationIn,Events,Conditions,WindDirDegrees,DateUTC
12:00 AM,54,46,68,29.94,31,SSW,11.2,,,,,200,2012-10-03 22:00:00
12:20 AM,53.6,44.6,72,29.95,6.2,SSW,12.7,-,N/A,,Unknown,200,2012-10-03 22:20:00
12:50 AM,53.6,44.6,72,29.95,6.2,SSW,16.1,-,N/A,,Unknown,210,2012-10-03 22:50:00
1:00 AM,54,47,70,29.92,25,SSW,8.9,,,,Overcast,200,2012-10-03 23:00:00
1:20 AM,53.6,44.6,72,29.95,6.2,SSW,13.8,-,N/A,,Scattered Clouds,210,2012-10-03 23:20:00
1:50 AM,53.6,44.6,72,29.95,6.2,SSW,15.0,-,N/A,,Partly Cloudy,210,2012-10-03 23:50:00
2:00 AM,54,46,68,29.91,22,SSW,8.9,,,,Overcast,210,2012-10-04 00:00:00
2:20 AM,53.6,44.6,72,29.95,6.2,SSW,13.8,-,N/A,,Mostly Cloudy,210,2012-10-04 00:20:00
2:50 AM,53.6,44.6,72,29.92,6.2,SSW,13.8,-,N/A,,Mostly Cloudy,210,2012-10-04 00:50:00
3:00 AM,54,46,67,29.91,25,SSW,11.2,,,,Overcast,200,2012-10-04 01:00:00
3:20 AM,51.8,42.8,71,29.92,6.2,SSW,12.7,-,N/A,,Partly Cloudy,210,2012-10-04 01:20:00
3:50 AM,53.6,44.6,72,29.92,6.2,SSW,10.4,-,N/A,,Overcast,210,2012-10-04 01:50:00
4:00 AM,54,46,67,29.90,22,SSW,11.2,,,,Overcast,200,2012-10-04 02:00:00
4:20 AM,53.6,44.6,72,29.92,6.2,SSW,12.7,-,N/A,,Overcast,210,2012-10-04 02:20:00
4:50 AM,53.6,44.6,72,29.92,6.2,SSW,11.5,-,N/A,,Overcast,210,2012-10-04 02:50:00
5:20 AM,53.6,44.6,72,29.92,6.2,SSW,11.5,-,N/A,,Mostly Cloudy,210,2012-10-04 03:20:00
5:50 AM,53.6,44.6,72,29.89,6.2,SSW,13.8,-,N/A,,Overcast,200,2012-10-04 03:50:00
6:00 AM,54,47,68,29.88,28,SSW,11.2,,,,Partly Cloudy,200,2012-10-04 04:00:00
6:20 AM,53.6,44.6,72,29.89,6.2,SSW,15.0,-,N/A,,Overcast,200,2012-10-04 04:20:00
6:50 AM,53.6,44.6,72,29.89,6.2,SSW,13.8,-,N/A,Rain,Light Rain Showers,200,2012-10-04 04:50:00
7:00 AM,54,47,72,29.87,28,SSW,11.2,,,Rain,Light Rain,200,2012-10-04 05:00:00
7:20 AM,53.6,44.6,72,29.89,6.2,SSW,13.8,-,N/A,,Mostly Cloudy,200,2012-10-04 05:20:00
7:50 AM,53.6,44.6,72,29.89,6.2,South,13.8,-,N/A,,Mostly Cloudy,190,2012-10-04 05:50:00
8:00 AM,54,47,71,29.86,31,South,11.2,,,,Partly Cloudy,190,2012-10-04 06:00:00
8:20 AM,53.6,46.4,77,29.86,6.2,South,12.7,-,N/A,,Mostly Cloudy,190,2012-10-04 06:20:00
8:50 AM,55.4,46.4,72,29.86,6.2,South,11.5,-,N/A,,Mostly Cloudy,190,2012-10-04 06:50:00
9:00 AM,56,48,67,29.83,31,South,8.9,,,,Scattered Clouds,180,2012-10-04 07:00:00
9:20 AM,57.2,46.4,67,29.86,6.2,SSW,16.1,-,N/A,,Mostly Cloudy,200,2012-10-04 07:20:00
9:50 AM,57.2,46.4,67,29.86,6.2,SSW,17.3,-,N/A,Rain,Light Rain,200,2012-10-04 07:50:00
10:00 AM,57,48,65,29.82,28,SSW,13.4,,,Rain,Light Rain,200,2012-10-04 08:00:00
10:20 AM,57.2,48.2,72,29.83,6.2,SSW,17.3,-,N/A,Rain,Light Rain,200,2012-10-04 08:20:00
10:50 AM,57.2,46.4,67,29.83,6.2,South,17.3,28.8,N/A,,Mostly Cloudy,190,2012-10-04 08:50:00
11:20 AM,57.2,46.4,67,29.83,6.2,South,20.7,36.8,N/A,Rain,Light Rain,190,2012-10-04 09:20:00
11:50 AM,55.4,48.2,77,29.83,5.6,South,18.4,-,N/A,Rain,Rain,190,2012-10-04 09:50:00
12:00 PM,56,51,77,29.80,12,South,13.4,,,Rain,Light Rain,190,2012-10-04 10:00:00
12:20 PM,55.4,50.0,82,29.80,4.3,SSW,19.6,-,N/A,Rain,Light Rain,200,2012-10-04 10:20:00
12:50 PM,53.6,50.0,88,29.80,3.7,South,13.8,-,N/A,Rain,Rain,180,2012-10-04 10:50:00
1:00 PM,54,52,91,29.77,5,South,13.4,,,Rain,Rain,180,2012-10-04 11:00:00
1:50 PM,55.4,51.8,88,29.77,6.2,SSW,20.7,-,N/A,Rain,Light Rain,200,2012-10-04 11:50:00
2:00 PM,56,53,87,29.73,4,SSW,13.4,,,Rain,Light Rain,200,2012-10-04 12:00:00
2:20 PM,55.4,50.0,82,29.74,5.0,SSW,19.6,-,N/A,Rain,Light Rain Showers,200,2012-10-04 12:20:00
2:50 PM,53.6,50.0,88,29.74,2.8,SW,20.7,32.2,N/A,Rain,Heavy Rain Showers,220,2012-10-04 12:50:00
3:00 PM,53,51,91,29.73,2,SW,17.9,,,Rain,Rain,230,2012-10-04 13:00:00
3:20 PM,53.6,48.2,82,29.74,6.2,SSW,21.9,33.4,N/A,Rain,Light Rain Showers,210,2012-10-04 13:20:00
3:50 PM,53.6,48.2,82,29.74,5.6,SW,21.9,-,N/A,Rain,Rain,220,2012-10-04 13:50:00
4:00 PM,53,51,89,29.73,11,SW,17.9,,,Rain,Rain,230,2012-10-04 14:00:00
4:20 PM,51.8,50.0,94,29.74,2.2,SSW,29.9,-,N/A,Rain,Heavy Rain,210,2012-10-04 14:20:00
4:50 PM,48.2,42.8,82,29.80,6.2,WSW,18.4,-,N/A,Rain,Rain,250,2012-10-04 14:50:00
5:20 PM,48.2,44.6,87,29.83,6.2,WSW,16.1,-,N/A,Rain,Light Rain,240,2012-10-04 15:20:00
5:50 PM,48.2,42.8,82,29.86,6.2,WSW,13.8,-,N/A,,Mostly Cloudy,250,2012-10-04 15:50:00
6:00 PM,48,45,86,29.86,25,West,13.4,,,Rain,Light Rain,260,2012-10-04 16:00:00
6:20 PM,48.2,42.8,82,29.86,6.2,WSW,15.0,27.6,N/A,Rain,Light Rain Showers,250,2012-10-04 16:20:00
6:50 PM,46.4,41.0,81,29.89,6.2,WSW,16.1,28.8,N/A,,Scattered Clouds,250,2012-10-04 16:50:00
7:00 PM,47,44,83,29.91,37,West,11.2,,,Rain,Light Rain,270,2012-10-04 17:00:00
7:20 PM,46.4,41.0,81,29.92,6.2,WSW,12.7,-,N/A,,Mostly Cloudy,250,2012-10-04 17:20:00
7:50 PM,46.4,41.0,81,29.95,6.2,West,11.5,-,N/A,,Mostly Cloudy,260,2012-10-04 17:50:00
8:00 PM,47,43,79,29.97,28,West,11.2,,,,Partly Cloudy,270,2012-10-04 18:00:00
8:20 PM,44.6,41.0,87,29.98,6.2,WSW,11.5,-,N/A,,Scattered Clouds,250,2012-10-04 18:20:00
8:50 PM,44.6,39.2,81,29.98,6.2,WSW,11.5,-,N/A,,Unknown,250,2012-10-04 18:50:00
9:00 PM,44,42,88,30.01,22,West,8.9,,,,Scattered Clouds,260,2012-10-04 19:00:00
9:20 PM,42.8,39.2,87,30.01,6.2,WSW,10.4,-,N/A,,Unknown,240,2012-10-04 19:20:00
9:50 PM,42.8,39.2,87,30.04,6.2,SW,9.2,-,N/A,,Unknown,220,2012-10-04 19:50:00
10:00 PM,43,41,92,30.05,9,SW,8.9,,,,,230,2012-10-04 20:00:00
10:20 PM,42.8,39.2,87,30.04,6.2,SW,8.1,-,N/A,,Unknown,220,2012-10-04 20:20:00
10:50 PM,42.8,39.2,87,30.04,6.2,SW,8.1,-,N/A,,Unknown,220,2012-10-04 20:50:00
11:20 PM,41.0,39.2,93,30.04,6.2,SSW,6.9,-,N/A,,Unknown,210,2012-10-04 21:20:00
11:50 PM,41.0,39.2,93,30.04,6.2,SW,6.9,-,N/A,,Unknown,220,2012-10-04 21:50:00